• Join FlightAware (Why Join?)
  • Login
  • US Flag 
02:00AM EST


 

Airport Tracker/Info


-or-


 

Live Flight TrackerFlight Track Log ✈ SWA378 ✈ 01-May-2013 ✈ KATL - KORF

Flight Track Log - Related Links

Times and Time Zones

All times are in EDT time to prevent confusion due to time zone crossing. See the SWA378 flight status page for this flight to view local times or setup timezone preferences in your user account.

Time Position Orientation Groundspeed Altitude Reporting Facility
EDT Latitude Longitude Course Direction KTS MPH feet Rate Location/Type
06:28PM 33.6353 -84.3731 92° East 437 503 3,500  Level Atlanta Center
06:29PM 33.6333 -84.2933 92° East 350 403 6,100 3,098 Climbing Atlanta Center
06:30PM 33.6333 -84.2000 90° East 286 329 9,800 1,950 Climbing Atlanta TRACON
06:31PM 33.6336 -84.1011 90° East 305 351 10,000 1,424 Climbing Atlanta Center
06:32PM 33.6397 -83.9964 86° East 312 359 12,600 2,100 Climbing Atlanta Center
06:33PM 33.6458 -83.8892 86° East 312 359 14,200 2,450 Climbing Atlanta Center
06:34PM 33.6519 -83.7792 86° East 317 365 17,500 3,100 Climbing Atlanta Center
06:35PM 33.6622 -83.6619 84° East 334 384 20,400 2,700 Climbing Atlanta Center
06:36PM 33.6994 -83.5469 69° East 353 406 22,900 1,300 Climbing Atlanta Center
06:37PM 33.7447 -83.4267 66° East 376 433 23,000 50 Climbing Atlanta Center
06:38PM 33.7881 -83.3239 63° Northeast 384 442 23,000 700 Level Atlanta Center
06:39PM 33.8394 -83.2033 63° Northeast 391 450 24,400 1,650 Climbing Atlanta Center
06:40PM 33.8886 -83.0778 65° Northeast 401 461 26,300 1,950 Climbing Atlanta Center
06:41PM 33.9439 -82.9419 64° Northeast 423 487 28,300 1,500 Climbing Atlanta Center
06:42PM 33.9989 -82.8061 64° Northeast 442 509 29,300 1,450 Climbing Atlanta Center
06:43PM 34.0536 -82.6647 65° Northeast 452 520 31,200 1,650 Climbing Atlanta Center
06:44PM 34.1083 -82.5233 65° Northeast 457 526 32,600 1,600 Climbing Atlanta Center
06:45PM 34.1650 -82.3767 65° Northeast 462 532 34,400 1,700 Climbing Atlanta Center
06:46PM 34.2214 -82.2325 65° Northeast 468 539 36,000 1,500 Climbing Atlanta Center
06:47PM 34.2858 -82.0878 62° Northeast 473 544 37,400 1,350 Climbing Atlanta Center
06:48PM 34.3586 -81.9428 59° Northeast 484 557 38,700 1,250 Climbing Atlanta Center
06:49PM 34.4292 -81.8025 59° Northeast 484 557 39,900 1,150 Climbing Atlanta Center
06:50PM 34.4975 -81.6594 60° Northeast 489 563 41,000 550 Climbing Atlanta Center
06:51PM 34.5700 -81.5211 57° Northeast 489 563 41,000  Level Atlanta Center
06:52PM 34.6439 -81.3700 59° Northeast 483 556 41,000  Level Atlanta Center
06:53PM 34.7136 -81.2239 60° Northeast 489 563 41,000  Level Atlanta Center
06:54PM 34.7833 -81.0797 59° Northeast 484 557 41,000  Level Atlanta Center
06:55PM 34.8528 -80.9356 60° Northeast 490 564 41,000  Level Atlanta Center
06:56PM 34.9222 -80.7961 59° Northeast 485 558 41,000  Level Atlanta Center
06:57PM 34.9933 -80.6464 60° Northeast 497 572 41,000 -423 Level Atlanta Center
06:59PM 35.1028 -80.4206 59° Northeast 515 593 39,900 -769 Descending Washington Center
07:00PM 35.1733 -80.2750 59° Northeast 506 582 39,000 -915 Descending Washington Center
07:01PM 35.2417 -80.1289 60° Northeast 490 564 38,100 -958 Descending Washington Center
07:02PM 35.3047 -80.0053 58° Northeast 485 558 37,100 -545 Descending Washington Center
07:03PM 35.3642 -79.8583 64° Northeast 480 552 37,000 -50 Descending Washington Center
07:04PM 35.4117 -79.7003 70° East 480 552 37,000  Level Washington Center
07:05PM 35.4564 -79.5469 70° East 480 552 37,000  Level Washington Center
07:06PM 35.5100 -79.3736 69° East 480 552 37,000  Level Washington Center
07:07PM 35.5544 -79.2147 71° East 480 552 37,000 -397 Level Washington Center
07:08PM 35.5989 -79.0611 70° East 480 552 36,200 -1,934 Descending Washington Center
07:09PM 35.6450 -78.8994 71° East 480 552 33,100 -2,975 Descending Washington Center
07:10PM 35.6889 -78.7453 71° East 480 552 30,200 -2,050 Descending Washington Center
07:11PM 35.7303 -78.6011 70° East 468 539 29,000 -610 Descending Washington Center
07:12PM 35.7692 -78.4617 71° East 447 514 29,000  Level Washington Center
07:13PM 35.8078 -78.3247 71° East 433 498 29,000  Level Washington Center
07:14PM 35.8442 -78.1878 72° East 422 486 29,000  Level Washington Center
07:15PM 35.8825 -78.0481 71° East 422 486 29,000 -298 Level Washington Center
07:16PM 35.9228 -77.9108 70° East 422 486 28,400 -1,388 Descending Washington Center
07:17PM 35.9608 -77.7783 70° East 417 480 26,200 -2,237 Descending Washington Center
07:18PM 36.0028 -77.6536 67° East 404 465 24,000 -2,288 Descending Washington Center
07:19PM 36.0567 -77.5394 60° Northeast 389 448 21,700 -1,488 Descending Washington Center
07:20PM 36.1106 -77.4328 58° Northeast 376 433 21,000 -347 Descending Washington Center
07:21PM 36.1622 -77.3261 59° Northeast 369 425 21,000  Level Washington Center
07:22PM 36.2053 -77.2292 61° Northeast 357 411 21,000 -661 Level Washington Center
07:23PM 36.2525 -77.1297 59° Northeast 365 420 19,800 -1,571 Descending Washington Center
07:23PM 36.2825 -77.0658 60° Northeast 354 407 18,800 -1,629 Descending Washington Center
07:24PM 36.3083 -77.0069 61° Northeast 352 405 17,900 -1,672 Descending Washington Center
07:24PM 36.3297 -76.9636 58° Northeast 343 395 17,100 -2,000 Descending Washington Center
07:25PM 36.3617 -76.9075 55° Northeast 352 405 15,900 -2,449 Descending Washington Center
07:25PM 36.3764 -76.8922 40° Northeast 349 402 15,100 -2,613 Descending Washington Center
07:26PM 36.4231 -76.8181 52° Northeast 347 399 13,200 -2,491 Descending Washington Center
07:27PM 36.4844 -76.7339 48° Northeast 335 386 10,700 -2,278 Descending Washington Center
07:27PM 36.5014 -76.7083 50° Northeast 305 351 10,200 -1,800 Descending Washington Center
07:28PM 36.5542 -76.6339 49° Northeast 282 325 8,300 -1,860 Descending Washington Center
07:29PM 36.5839 -76.5828 54° Northeast 290 334 7,100 -1,909 Descending Washington Center
07:29PM 36.6069 -76.5519 47° Northeast 274 315 6,200 -1,629 Descending Washington Center
07:30PM 36.6408 -76.5006 51° Northeast 262 302 5,200 -1,043 Descending Washington Center
07:31PM 36.6767 -76.4439 52° Northeast 262 302 4,600 -608 Descending Washington Center
07:31PM 36.6936 -76.4208 47° Northeast 224 258 4,400 -500 Descending Washington Center
07:32PM 36.7147 -76.3875 52° Northeast 235 270 4,100 -492 Descending Washington Center
07:32PM 36.7336 -76.3642 45° Northeast 198 228 3,900 -649 Descending Washington Center
07:33PM 36.7589 -76.3333 44° Northeast 173 199 3,300 -927 Descending Washington Center
07:34PM 36.8008 -76.2922 38° Northeast 176 203 2,200 -985 Descending Washington Center